Time,TemperatureF,DewpointF,PressureIn,WindDirection,WindDirectionDegrees,WindSpeedMPH,WindSpeedGustMPH,Humidity,HourlyPrecipIn,Conditions,Clouds,dailyrainin,SoftwareType,DateUTC
2013-04-17 00:00:00,50.9,44.2,30.09,NW,318,0.0,6.0,78,0.00,,,0.00,meteohub,2013-04-17 04:00:00,
2013-04-17 00:02:00,50.9,44.2,30.09,NNW,345,4.0,6.0,78,0.00,,,0.00,meteohub,2013-04-17 04:02:00,
2013-04-17 00:07:00,50.9,44.2,30.09,WNW,287,0.0,6.0,78,0.00,,,0.00,meteohub,2013-04-17 04:07:00,
2013-04-17 00:12:00,50.9,44.6,30.09,North,10,0.0,4.0,79,0.00,,,0.00,meteohub,2013-04-17 04:12:00,
2013-04-17 00:17:00,50.7,44.4,30.09,NW,312,0.0,4.0,79,0.00,,,0.00,meteohub,2013-04-17 04:17:00,
2013-04-17 00:22:00,50.5,44.2,30.09,South,184,0.0,5.0,79,0.00,,,0.00,meteohub,2013-04-17 04:22:00,
2013-04-17 00:27:00,50.4,44.1,30.09,NNW,330,0.0,5.0,79,0.00,,,0.00,meteohub,2013-04-17 04:27:00,
2013-04-17 00:32:00,50.2,43.9,30.09,NNW,330,0.0,4.0,79,0.00,,,0.00,meteohub,2013-04-17 04:32:00,
2013-04-17 00:37:00,50.4,44.1,30.09,NNW,330,0.0,0.0,79,0.00,,,0.00,meteohub,2013-04-17 04:37:00,
2013-04-17 00:42:00,50.0,43.3,30.09,NNW,330,0.0,0.0,78,0.00,,,0.00,meteohub,2013-04-17 04:42:00,
2013-04-17 00:47:00,50.0,43.3,30.09,SW,232,0.0,0.0,78,0.00,,,0.00,meteohub,2013-04-17 04:47:00,
2013-04-17 00:52:00,50.2,43.9,30.09,NW,319,0.0,3.0,79,0.00,,,0.00,meteohub,2013-04-17 04:52:00,
2013-04-17 00:57:00,50.2,43.9,30.09,NNW,335,3.0,5.0,79,0.00,,,0.00,meteohub,2013-04-17 04:57:00,
2013-04-17 01:02:00,50.4,44.1,30.09,West,277,0.0,8.0,79,0.00,,,0.00,meteohub,2013-04-17 05:02:00,
2013-04-17 01:07:00,50.5,44.6,30.12,NNW,330,0.0,8.0,80,0.00,,,0.00,meteohub,2013-04-17 05:07:00,
2013-04-17 01:12:00,50.4,44.4,30.12,North,349,5.0,8.0,80,0.00,,,0.00,meteohub,2013-04-17 05:12:00,
2013-04-17 01:17:00,50.4,44.4,30.12,WNW,289,3.0,6.0,80,0.00,,,0.00,meteohub,2013-04-17 05:17:00,
2013-04-17 01:22:00,50.2,44.2,30.12,NNW,345,0.0,5.0,80,0.00,,,0.00,meteohub,2013-04-17 05:22:00,
2013-04-17 01:27:00,50.0,44.1,30.12,WNW,297,4.0,5.0,80,0.00,,,0.00,meteohub,2013-04-17 05:27:00,
2013-04-17 01:32:00,50.0,44.1,30.12,WNW,301,4.0,6.0,80,0.00,,,0.00,meteohub,2013-04-17 05:32:00,
2013-04-17 01:37:00,49.6,43.3,30.12,WNW,295,5.0,7.0,79,0.00,,,0.00,meteohub,2013-04-17 05:37:00,
2013-04-17 01:42:00,49.3,42.8,30.12,West,274,8.0,8.0,78,0.00,,,0.00,meteohub,2013-04-17 05:42:00,
2013-04-17 01:47:00,48.9,41.7,30.12,WNW,291,4.0,8.0,76,0.00,,,0.00,meteohub,2013-04-17 05:47:00,
2013-04-17 01:52:00,48.7,41.2,30.12,WSW,255,4.0,11.0,75,0.00,,,0.00,meteohub,2013-04-17 05:52:00,
2013-04-17 01:57:00,48.4,40.5,30.12,West,279,0.0,11.0,74,0.00,,,0.00,meteohub,2013-04-17 05:57:00,
2013-04-17 02:02:00,48.2,39.9,30.12,North,5,3.0,6.0,73,0.00,,,0.00,meteohub,2013-04-17 06:02:00,
2013-04-17 02:07:00,48.0,39.7,30.12,NNW,329,6.0,6.0,73,0.00,,,0.00,meteohub,2013-04-17 06:07:00,
2013-04-17 02:12:00,47.8,39.6,30.12,WSW,245,6.0,6.0,73,0.00,,,0.00,meteohub,2013-04-17 06:12:00,
2013-04-17 02:17:00,47.7,39.0,30.12,WNW,288,3.0,6.0,72,0.00,,,0.00,meteohub,2013-04-17 06:17:00,
2013-04-17 02:22:00,47.5,38.8,30.12,WSW,255,3.0,6.0,72,0.00,,,0.00,meteohub,2013-04-17 06:22:00,
2013-04-17 02:27:00,47.5,38.1,30.12,West,279,3.0,6.0,70,0.00,,,0.00,meteohub,2013-04-17 06:27:00,
2013-04-17 02:32:00,47.3,37.9,30.12,West,265,4.0,6.0,70,0.00,,,0.00,meteohub,2013-04-17 06:32:00,
2013-04-17 02:37:00,47.1,37.8,30.14,North,-999,-999.0,6.0,70,0.00,,,0.00,meteohub,2013-04-17 06:37:00,
2013-04-17 02:42:00,46.9,37.2,30.14,North,-999,-999.0,4.0,69,0.00,,,0.00,meteohub,2013-04-17 06:42:00,
2013-04-17 02:47:00,46.8,37.2,30.14,WNW,293,6.0,6.0,69,0.00,,,0.00,meteohub,2013-04-17 06:47:00,
2013-04-17 02:52:00,46.6,36.5,30.14,WNW,300,3.0,6.0,68,0.00,,,0.00,meteohub,2013-04-17 06:52:00,
2013-04-17 02:57:00,46.4,36.0,30.14,WNW,296,5.0,6.0,67,0.00,,,0.00,meteohub,2013-04-17 06:57:00,
2013-04-17 03:02:00,46.2,36.0,30.14,West,269,3.0,6.0,67,0.00,,,0.00,meteohub,2013-04-17 07:02:00,
2013-04-17 03:07:00,46.0,35.2,30.14,WNW,283,4.0,6.0,66,0.00,,,0.00,meteohub,2013-04-17 07:07:00,
2013-04-17 03:12:00,45.9,35.1,30.14,WNW,301,11.0,11.0,66,0.00,,,0.00,meteohub,2013-04-17 07:12:00,
2013-04-17 03:17:00,45.7,34.5,30.14,WNW,290,5.0,11.0,65,0.00,,,0.00,meteohub,2013-04-17 07:17:00,
2013-04-17 03:22:00,45.3,34.3,30.14,WNW,302,5.0,11.0,65,0.00,,,0.00,meteohub,2013-04-17 07:22:00,
2013-04-17 03:27:00,45.3,33.8,30.14,NNW,333,2.0,11.0,64,0.00,,,0.00,meteohub,2013-04-17 07:27:00,
2013-04-17 03:32:00,45.0,33.4,30.14,West,278,4.0,8.0,64,0.00,,,0.00,meteohub,2013-04-17 07:32:00,
2013-04-17 03:37:00,44.8,33.3,30.14,West,280,3.0,6.0,64,0.00,,,0.00,meteohub,2013-04-17 07:37:00,
2013-04-17 03:42:00,44.8,32.9,30.14,WNW,298,3.0,9.0,63,0.00,,,0.00,meteohub,2013-04-17 07:42:00,
2013-04-17 03:47:00,44.6,32.7,30.14,WNW,285,5.0,9.0,63,0.00,,,0.00,meteohub,2013-04-17 07:47:00,
2013-04-17 03:52:00,44.2,32.4,30.14,West,279,0.0,9.0,63,0.00,,,0.00,meteohub,2013-04-17 07:52:00,
2013-04-17 03:57:00,44.1,32.4,30.14,WNW,288,3.0,5.0,63,0.00,,,0.00,meteohub,2013-04-17 07:57:00,
2013-04-17 04:02:00,44.1,32.4,30.14,WSW,255,0.0,4.0,63,0.00,,,0.00,meteohub,2013-04-17 08:02:00,
2013-04-17 04:07:00,44.1,31.8,30.14,WNW,301,5.0,5.0,62,0.00,,,0.00,meteohub,2013-04-17 08:07:00,
2013-04-17 04:12:00,43.9,32.2,30.14,North,8,0.0,5.0,63,0.00,,,0.00,meteohub,2013-04-17 08:12:00,
2013-04-17 04:17:00,43.9,32.2,30.14,NW,304,0.0,5.0,63,0.00,,,0.00,meteohub,2013-04-17 08:17:00,
2013-04-17 04:22:00,43.7,32.0,30.17,SW,218,0.0,5.0,63,0.00,,,0.00,meteohub,2013-04-17 08:22:00,
2013-04-17 04:27:00,43.7,32.0,30.17,WNW,285,0.0,5.0,63,0.00,,,0.00,meteohub,2013-04-17 08:27:00,
2013-04-17 04:32:00,43.5,31.8,30.17,NNW,332,0.0,5.0,63,0.00,,,0.00,meteohub,2013-04-17 08:32:00,
2013-04-17 04:37:00,43.3,31.6,30.17,NW,305,0.0,0.0,63,0.00,,,0.00,meteohub,2013-04-17 08:37:00,
2013-04-17 04:42:00,43.5,31.8,30.17,NNW,327,5.0,5.0,63,0.00,,,0.00,meteohub,2013-04-17 08:42:00,
2013-04-17 04:47:00,43.3,31.6,30.17,WNW,294,0.0,5.0,63,0.00,,,0.00,meteohub,2013-04-17 08:47:00,
2013-04-17 04:52:00,43.2,31.5,30.17,WNW,294,3.0,5.0,63,0.00,,,0.00,meteohub,2013-04-17 08:52:00,
2013-04-17 04:57:00,43.0,31.3,30.17,WNW,291,0.0,8.0,63,0.00,,,0.00,meteohub,2013-04-17 08:57:00,
2013-04-17 05:02:00,42.8,31.1,30.17,NNW,334,4.0,8.0,63,0.00,,,0.00,meteohub,2013-04-17 09:02:00,
2013-04-17 05:07:00,42.6,30.9,30.17,NNW,332,2.0,8.0,63,0.00,,,0.00,meteohub,2013-04-17 09:07:00,
2013-04-17 05:12:00,42.4,30.7,30.17,WNW,298,6.0,6.0,63,0.00,,,0.00,meteohub,2013-04-17 09:12:00,
2013-04-17 05:17:00,42.4,29.5,30.17,West,281,4.0,8.0,60,0.00,,,0.00,meteohub,2013-04-17 09:17:00,
2013-04-17 05:22:00,42.3,28.9,30.17,NW,309,8.0,8.0,59,0.00,,,0.00,meteohub,2013-04-17 09:22:00,
2013-04-17 05:27:00,42.1,28.4,30.17,NNW,339,4.0,8.0,58,0.00,,,0.00,meteohub,2013-04-17 09:27:00,
2013-04-17 05:32:00,41.7,27.7,30.17,NNW,346,0.0,8.0,57,0.00,,,0.00,meteohub,2013-04-17 09:32:00,
2013-04-17 05:37:00,41.5,27.5,30.17,NW,322,0.0,8.0,57,0.00,,,0.00,meteohub,2013-04-17 09:37:00,
2013-04-17 05:42:00,41.4,27.3,30.17,WNW,289,0.0,8.0,57,0.00,,,0.00,meteohub,2013-04-17 09:42:00,
2013-04-17 05:47:00,41.4,26.8,30.17,WNW,285,4.0,6.0,56,0.00,,,0.00,meteohub,2013-04-17 09:47:00,
2013-04-17 05:52:00,41.0,26.4,30.17,NNW,332,4.0,6.0,56,0.00,,,0.00,meteohub,2013-04-17 09:52:00,
2013-04-17 05:58:00,41.0,26.4,30.17,WNW,282,4.0,4.0,56,0.00,,,0.00,meteohub,2013-04-17 09:58:00,
2013-04-17 06:03:00,40.8,26.4,30.17,WNW,290,2.0,4.0,56,0.00,,,0.00,meteohub,2013-04-17 10:03:00,
2013-04-17 06:08:00,40.8,26.4,30.17,NNW,343,0.0,4.0,56,0.00,,,0.00,meteohub,2013-04-17 10:08:00,
2013-04-17 06:13:00,40.6,26.2,30.17,NW,306,4.0,5.0,56,0.00,,,0.00,meteohub,2013-04-17 10:13:00,
2013-04-17 06:18:00,40.5,26.1,30.17,NW,309,0.0,5.0,56,0.00,,,0.00,meteohub,2013-04-17 10:18:00,
2013-04-17 06:23:00,40.5,26.1,30.17,West,264,0.0,4.0,56,0.00,,,0.00,meteohub,2013-04-17 10:23:00,
2013-04-17 06:28:00,40.5,26.1,30.17,NW,320,4.0,4.0,56,0.00,,,0.00,meteohub,2013-04-17 10:28:00,
2013-04-17 06:33:00,40.5,26.1,30.17,NW,305,0.0,6.0,56,0.00,,,0.00,meteohub,2013-04-17 10:33:00,
2013-04-17 06:38:00,40.5,25.5,30.20,North,-999,-999.0,6.0,55,0.00,,,0.00,meteohub,2013-04-17 10:38:00,
2013-04-17 06:43:00,40.6,25.7,30.20,WNW,286,0.0,6.0,55,0.00,,,0.00,meteohub,2013-04-17 10:43:00,
2013-04-17 06:48:00,41.7,26.8,30.20,West,275,3.0,6.0,55,0.00,,,0.00,meteohub,2013-04-17 10:48:00,
2013-04-17 06:53:00,42.4,27.0,30.20,West,265,6.0,6.0,54,0.00,,,0.00,meteohub,2013-04-17 10:53:00,
2013-04-17 06:58:00,43.3,27.3,30.20,WNW,299,0.0,6.0,53,0.00,,,0.00,meteohub,2013-04-17 10:58:00,
2013-04-17 07:03:00,44.1,27.5,30.20,WNW,288,0.0,6.0,52,0.00,,,0.00,meteohub,2013-04-17 11:03:00,
2013-04-17 07:08:00,44.4,27.5,30.20,North,5,0.0,6.0,51,0.00,,,0.00,meteohub,2013-04-17 11:08:00,
2013-04-17 07:13:00,45.5,28.9,30.20,SW,215,0.0,0.0,52,0.00,,,0.00,meteohub,2013-04-17 11:13:00,
2013-04-17 07:18:00,45.1,26.6,30.20,ENE,68,0.0,3.0,48,0.00,,,0.00,meteohub,2013-04-17 11:18:00,
2013-04-17 07:23:00,46.0,27.5,30.20,East,84,0.0,3.0,48,0.00,,,0.00,meteohub,2013-04-17 11:23:00,
2013-04-17 07:28:00,46.4,27.3,30.20,North,349,0.0,3.0,47,0.00,,,0.00,meteohub,2013-04-17 11:28:00,
2013-04-17 07:33:00,46.0,24.8,30.20,NNE,12,4.0,4.0,43,0.00,,,0.00,meteohub,2013-04-17 11:33:00,
2013-04-17 07:38:00,46.6,25.3,30.20,NE,41,3.0,4.0,43,0.00,,,0.00,meteohub,2013-04-17 11:38:00,
2013-04-17 07:43:00,46.0,23.0,30.20,North,3,6.0,6.0,40,0.00,,,0.00,meteohub,2013-04-17 11:43:00,
2013-04-17 07:48:00,47.3,24.8,30.20,NNW,335,3.0,6.0,41,0.00,,,0.00,meteohub,2013-04-17 11:48:00,
2013-04-17 07:53:00,47.5,24.4,30.23,NNE,25,5.0,6.0,40,0.00,,,0.00,meteohub,2013-04-17 11:53:00,
2013-04-17 07:58:00,48.6,25.9,30.23,North,-999,-999.0,6.0,41,0.00,,,0.00,meteohub,2013-04-17 11:58:00,
2013-04-17 08:03:00,49.1,26.4,30.23,West,265,3.0,6.0,41,0.00,,,0.00,meteohub,2013-04-17 12:03:00,
2013-04-17 08:08:00,49.3,26.1,30.23,NW,317,6.0,6.0,40,0.00,,,0.00,meteohub,2013-04-17 12:08:00,
2013-04-17 08:13:00,49.6,25.7,30.23,NNW,338,8.0,10.0,39,0.00,,,0.00,meteohub,2013-04-17 12:13:00,
2013-04-17 08:18:00,49.6,25.0,30.23,West,260,10.0,17.0,38,0.00,,,0.00,meteohub,2013-04-17 12:18:00,
2013-04-17 08:23:00,49.3,24.8,30.23,NW,321,8.0,17.0,38,0.00,,,0.00,meteohub,2013-04-17 12:23:00,
2013-04-17 08:28:00,49.8,25.2,30.23,NNW,344,13.0,17.0,38,0.00,,,0.00,meteohub,2013-04-17 12:28:00,
2013-04-17 08:33:00,49.1,23.4,30.23,NNW,338,6.0,17.0,36,0.00,,,0.00,meteohub,2013-04-17 12:33:00,
2013-04-17 08:38:00,50.2,25.0,30.23,North,0,10.0,17.0,37,0.00,,,0.00,meteohub,2013-04-17 12:38:00,
2013-04-17 08:43:00,51.3,25.9,30.23,NW,321,8.0,17.0,37,0.00,,,0.00,meteohub,2013-04-17 12:43:00,
2013-04-17 08:48:00,51.8,26.4,30.23,WNW,299,4.0,13.0,37,0.00,,,0.00,meteohub,2013-04-17 12:48:00,
2013-04-17 08:53:00,52.5,27.0,30.23,NW,320,6.0,13.0,37,0.00,,,0.00,meteohub,2013-04-17 12:53:00,
2013-04-17 08:58:00,50.7,23.4,30.23,North,357,8.0,10.0,34,0.00,,,0.00,meteohub,2013-04-17 12:58:00,
2013-04-17 09:03:00,51.6,25.5,30.23,North,0,9.0,17.0,36,0.00,,,0.00,meteohub,2013-04-17 13:03:00,
2013-04-17 09:08:00,52.3,26.2,30.23,North,0,4.0,17.0,36,0.00,,,0.00,meteohub,2013-04-17 13:08:00,
2013-04-17 09:13:00,53.2,27.7,30.23,WNW,301,8.0,17.0,37,0.00,,,0.00,meteohub,2013-04-17 13:13:00,
2013-04-17 09:18:00,52.9,25.9,30.23,WNW,285,7.0,15.0,35,0.00,,,0.00,meteohub,2013-04-17 13:18:00,
2013-04-17 09:23:00,52.9,24.6,30.23,WNW,297,4.0,15.0,33,0.00,,,0.00,meteohub,2013-04-17 13:23:00,
2013-04-17 09:28:00,53.6,25.9,30.23,NNW,342,13.0,15.0,34,0.00,,,0.00,meteohub,2013-04-17 13:28:00,
2013-04-17 09:33:00,54.5,27.3,30.23,NW,321,7.0,15.0,35,0.00,,,0.00,meteohub,2013-04-17 13:33:00,
2013-04-17 09:38:00,54.5,26.8,30.23,NW,324,16.0,16.0,34,0.00,,,0.00,meteohub,2013-04-17 13:38:00,
2013-04-17 09:43:00,54.3,25.9,30.23,NW,319,11.0,18.0,33,0.00,,,0.00,meteohub,2013-04-17 13:43:00,
2013-04-17 09:48:00,54.1,25.0,30.23,NNW,337,12.0,18.0,32,0.00,,,0.00,meteohub,2013-04-17 13:48:00,
2013-04-17 09:53:00,53.6,23.7,30.23,NW,313,4.0,18.0,31,0.00,,,0.00,meteohub,2013-04-17 13:53:00,
2013-04-17 09:58:00,54.5,25.2,30.23,West,263,9.0,15.0,32,0.00,,,0.00,meteohub,2013-04-17 13:58:00,
2013-04-17 10:03:00,54.5,25.2,30.23,NW,320,9.0,15.0,32,0.00,,,0.00,meteohub,2013-04-17 14:03:00,
2013-04-17 10:08:00,54.7,26.1,30.23,West,279,3.0,15.0,33,0.00,,,0.00,meteohub,2013-04-17 14:08:00,
2013-04-17 10:13:00,54.7,25.3,30.23,West,267,9.0,15.0,32,0.00,,,0.00,meteohub,2013-04-17 14:13:00,
2013-04-17 10:18:00,54.7,25.3,30.23,NNW,330,6.0,13.0,32,0.00,,,0.00,meteohub,2013-04-17 14:18:00,
2013-04-17 10:23:00,54.1,24.1,30.23,NNW,332,10.0,13.0,31,0.00,,,0.00,meteohub,2013-04-17 14:23:00,
2013-04-17 10:28:00,53.8,23.0,30.23,NW,313,11.0,17.0,30,0.00,,,0.00,meteohub,2013-04-17 14:28:00,
2013-04-17 10:33:00,54.3,24.3,30.23,WNW,286,15.0,17.0,31,0.00,,,0.00,meteohub,2013-04-17 14:33:00,
2013-04-17 10:38:00,54.1,24.1,30.23,NW,309,4.0,15.0,31,0.00,,,0.00,meteohub,2013-04-17 14:38:00,
2013-04-17 10:43:00,54.3,25.2,30.23,NW,312,6.0,15.0,32,0.00,,,0.00,meteohub,2013-04-17 14:43:00,
2013-04-17 10:48:00,54.5,26.1,30.23,NW,308,5.0,15.0,33,0.00,,,0.00,meteohub,2013-04-17 14:48:00,
2013-04-17 10:53:00,54.0,24.1,30.23,SW,221,3.0,17.0,31,0.00,,,0.00,meteohub,2013-04-17 14:53:00,
2013-04-17 10:58:00,54.0,24.1,30.23,WNW,295,14.0,17.0,31,0.00,,,0.00,meteohub,2013-04-17 14:58:00,
2013-04-17 11:03:00,54.3,24.3,30.23,WSW,256,4.0,17.0,31,0.00,,,0.00,meteohub,2013-04-17 15:03:00,
2013-04-17 11:08:00,54.5,24.4,30.23,WNW,289,6.0,18.0,31,0.00,,,0.00,meteohub,2013-04-17 15:08:00,
2013-04-17 11:13:00,54.1,22.6,30.23,NNW,346,17.0,18.0,29,0.00,,,0.00,meteohub,2013-04-17 15:13:00,
2013-04-17 11:18:00,54.7,23.9,30.23,NW,312,11.0,18.0,30,0.00,,,0.00,meteohub,2013-04-17 15:18:00,
2013-04-17 11:23:00,55.0,24.1,30.23,WSW,244,5.0,18.0,30,0.00,,,0.00,meteohub,2013-04-17 15:23:00,
2013-04-17 11:28:00,55.0,24.1,30.23,South,185,4.0,17.0,30,0.00,,,0.00,meteohub,2013-04-17 15:28:00,
2013-04-17 11:33:00,54.7,23.9,30.23,SW,231,3.0,15.0,30,0.00,,,0.00,meteohub,2013-04-17 15:33:00,
2013-04-17 11:38:00,53.8,21.4,30.23,West,276,11.0,15.0,28,0.00,,,0.00,meteohub,2013-04-17 15:38:00,
2013-04-17 11:43:00,53.2,21.7,30.23,NNW,340,15.0,17.0,29,0.00,,,0.00,meteohub,2013-04-17 15:43:00,
2013-04-17 11:48:00,53.6,22.1,30.23,NNW,342,8.0,18.0,29,0.00,,,0.00,meteohub,2013-04-17 15:48:00,
2013-04-17 11:53:00,54.5,23.7,30.23,West,261,13.0,18.0,30,0.00,,,0.00,meteohub,2013-04-17 15:53:00,
2013-04-17 11:58:00,54.9,24.1,30.23,NW,320,8.0,18.0,30,0.00,,,0.00,meteohub,2013-04-17 15:58:00,
2013-04-17 12:03:00,54.3,21.9,30.23,NW,325,13.0,13.0,28,0.00,,,0.00,meteohub,2013-04-17 16:03:00,
2013-04-17 12:08:00,54.9,23.2,30.23,WNW,293,7.0,13.0,29,0.00,,,0.00,meteohub,2013-04-17 16:08:00,
2013-04-17 12:13:00,55.0,22.5,30.23,NNW,343,11.0,13.0,28,0.00,,,0.00,meteohub,2013-04-17 16:13:00,
2013-04-17 12:18:00,54.7,22.3,30.23,NNW,333,12.0,13.0,28,0.00,,,0.00,meteohub,2013-04-17 16:18:00,
2013-04-17 12:23:00,54.3,21.0,30.23,NW,316,11.0,15.0,27,0.00,,,0.00,meteohub,2013-04-17 16:23:00,
2013-04-17 12:28:00,53.6,19.6,30.23,NW,321,11.0,15.0,26,0.00,,,0.00,meteohub,2013-04-17 16:28:00,
2013-04-17 12:33:00,54.3,20.1,30.23,NNW,337,11.0,18.0,26,0.00,,,0.00,meteohub,2013-04-17 16:33:00,
2013-04-17 12:38:00,55.6,22.1,30.23,WNW,289,11.0,18.0,27,0.00,,,0.00,meteohub,2013-04-17 16:38:00,
2013-04-17 12:43:00,56.5,22.8,30.23,NW,318,10.0,18.0,27,0.00,,,0.00,meteohub,2013-04-17 16:43:00,
2013-04-17 12:48:00,56.8,23.2,30.23,WNW,297,4.0,14.0,27,0.00,,,0.00,meteohub,2013-04-17 16:48:00,
2013-04-17 12:53:00,56.3,21.9,30.23,NNW,339,11.0,14.0,26,0.00,,,0.00,meteohub,2013-04-17 16:53:00,
2013-04-17 12:58:00,57.0,23.4,30.23,North,349,6.0,11.0,27,0.00,,,0.00,meteohub,2013-04-17 16:58:00,
2013-04-17 13:03:00,56.7,22.1,30.23,NW,307,13.0,13.0,26,0.00,,,0.00,meteohub,2013-04-17 17:03:00,
2013-04-17 13:08:00,55.9,21.6,30.23,NW,311,12.0,17.0,26,0.00,,,0.00,meteohub,2013-04-17 17:08:00,
2013-04-17 13:13:00,55.8,21.4,30.23,NW,310,11.0,17.0,26,0.00,,,0.00,meteohub,2013-04-17 17:13:00,
2013-04-17 13:18:00,56.5,22.8,30.23,NNW,334,8.0,17.0,27,0.00,,,0.00,meteohub,2013-04-17 17:18:00,
2013-04-17 13:23:00,56.5,21.9,30.23,NW,318,14.0,17.0,26,0.00,,,0.00,meteohub,2013-04-17 17:23:00,
2013-04-17 13:28:00,56.1,20.8,30.23,North,353,8.0,15.0,25,0.00,,,0.00,meteohub,2013-04-17 17:28:00,
2013-04-17 13:33:00,55.6,21.2,30.23,North,353,8.0,15.0,26,0.00,,,0.00,meteohub,2013-04-17 17:33:00,
2013-04-17 13:38:00,57.2,22.6,30.23,SSW,204,5.0,15.0,26,0.00,,,0.00,meteohub,2013-04-17 17:38:00,
2013-04-17 13:43:00,56.8,22.3,30.23,NNW,331,11.0,11.0,26,0.00,,,0.00,meteohub,2013-04-17 17:43:00,
2013-04-17 13:48:00,58.1,23.4,30.23,WNW,285,17.0,17.0,26,0.00,,,0.00,meteohub,2013-04-17 17:48:00,
2013-04-17 13:53:00,56.8,22.3,30.23,NW,323,8.0,17.0,26,0.00,,,0.00,meteohub,2013-04-17 17:53:00,
2013-04-17 13:58:00,57.7,23.0,30.23,West,275,5.0,17.0,26,0.00,,,0.00,meteohub,2013-04-17 17:58:00,
2013-04-17 14:03:00,57.6,23.0,30.23,WNW,297,9.0,17.0,26,0.00,,,0.00,meteohub,2013-04-17 18:03:00,
2013-04-17 14:08:00,57.6,23.0,30.23,North,-999,-999.0,10.0,26,0.00,,,0.00,meteohub,2013-04-17 18:08:00,
2013-04-17 14:13:00,57.6,21.9,30.23,NW,320,12.0,15.0,25,0.00,,,0.00,meteohub,2013-04-17 18:13:00,
2013-04-17 14:18:00,56.7,21.2,30.23,North,349,12.0,15.0,25,0.00,,,0.00,meteohub,2013-04-17 18:18:00,
2013-04-17 14:23:00,57.4,22.8,30.26,WNW,292,10.0,15.0,26,0.00,,,0.00,meteohub,2013-04-17 18:23:00,
2013-04-17 14:28:00,57.6,23.0,30.26,WNW,283,5.0,15.0,26,0.00,,,0.00,meteohub,2013-04-17 18:28:00,
2013-04-17 14:33:00,57.2,21.7,30.26,West,267,7.0,15.0,25,0.00,,,0.00,meteohub,2013-04-17 18:33:00,
2013-04-17 14:38:00,56.8,21.4,30.26,NW,305,6.0,13.0,25,0.00,,,0.00,meteohub,2013-04-17 18:38:00,
2013-04-17 14:43:00,56.3,20.8,30.26,NNE,15,11.0,14.0,25,0.00,,,0.00,meteohub,2013-04-17 18:43:00,
2013-04-17 14:48:00,56.1,20.8,30.26,NNW,343,10.0,15.0,25,0.00,,,0.00,meteohub,2013-04-17 18:48:00,
2013-04-17 14:53:00,55.9,20.7,30.26,NW,307,8.0,15.0,25,0.00,,,0.00,meteohub,2013-04-17 18:53:00,
2013-04-17 14:58:00,56.5,21.9,30.26,West,272,8.0,15.0,26,0.00,,,0.00,meteohub,2013-04-17 18:58:00,
2013-04-17 15:03:00,56.1,20.8,30.26,NW,317,6.0,15.0,25,0.00,,,0.00,meteohub,2013-04-17 19:03:00,
2013-04-17 15:08:00,56.8,22.3,30.26,North,-999,-999.0,13.0,26,0.00,,,0.00,meteohub,2013-04-17 19:08:00,
2013-04-17 15:13:00,56.7,21.2,30.26,North,349,11.0,13.0,25,0.00,,,0.00,meteohub,2013-04-17 19:13:00,
2013-04-17 15:18:00,55.9,20.7,30.26,NNW,327,8.0,13.0,25,0.00,,,0.00,meteohub,2013-04-17 19:18:00,
2013-04-17 15:23:00,55.4,20.1,30.26,NW,312,8.0,13.0,25,0.00,,,0.00,meteohub,2013-04-17 19:23:00,
2013-04-17 15:28:00,55.6,20.3,30.26,NNW,332,8.0,13.0,25,0.00,,,0.00,meteohub,2013-04-17 19:28:00,
2013-04-17 15:33:00,55.9,20.7,30.26,North,1,15.0,15.0,25,0.00,,,0.00,meteohub,2013-04-17 19:33:00,
2013-04-17 15:39:00,55.4,20.1,30.26,NNW,344,15.0,15.0,25,0.00,,,0.00,meteohub,2013-04-17 19:39:00,
2013-04-17 15:44:00,55.4,21.0,30.26,NW,326,7.0,15.0,26,0.00,,,0.00,meteohub,2013-04-17 19:44:00,
2013-04-17 15:49:00,55.4,20.1,30.26,NNW,339,11.0,15.0,25,0.00,,,0.00,meteohub,2013-04-17 19:49:00,
2013-04-17 15:54:00,56.3,21.9,30.26,WNW,286,8.0,15.0,26,0.00,,,0.00,meteohub,2013-04-17 19:54:00,
2013-04-17 15:59:00,56.3,20.8,30.26,NNW,345,6.0,13.0,25,0.00,,,0.00,meteohub,2013-04-17 19:59:00,
2013-04-17 16:04:00,55.6,21.2,30.26,NNW,328,10.0,13.0,26,0.00,,,0.00,meteohub,2013-04-17 20:04:00,
2013-04-17 16:09:00,55.6,20.3,30.26,NNW,334,8.0,12.0,25,0.00,,,0.00,meteohub,2013-04-17 20:09:00,
2013-04-17 16:14:00,55.2,20.8,30.26,NNE,12,5.0,12.0,26,0.00,,,0.00,meteohub,2013-04-17 20:14:00,
2013-04-17 16:19:00,55.2,20.8,30.26,NW,306,8.0,12.0,26,0.00,,,0.00,meteohub,2013-04-17 20:19:00,
2013-04-17 16:24:00,55.2,20.8,30.26,NW,326,8.0,12.0,26,0.00,,,0.00,meteohub,2013-04-17 20:24:00,
2013-04-17 16:29:00,55.4,20.1,30.26,WNW,296,9.0,13.0,25,0.00,,,0.00,meteohub,2013-04-17 20:29:00,
2013-04-17 16:34:00,55.6,20.3,30.26,WNW,301,3.0,13.0,25,0.00,,,0.00,meteohub,2013-04-17 20:34:00,
2013-04-17 16:39:00,55.6,20.3,30.26,WNW,303,5.0,13.0,25,0.00,,,0.00,meteohub,2013-04-17 20:39:00,
2013-04-17 16:44:00,55.4,20.1,30.26,NW,316,8.0,14.0,25,0.00,,,0.00,meteohub,2013-04-17 20:44:00,
2013-04-17 16:49:00,54.7,20.5,30.26,NW,317,6.0,14.0,26,0.00,,,0.00,meteohub,2013-04-17 20:49:00,
2013-04-17 16:54:00,55.0,20.8,30.29,West,272,8.0,14.0,26,0.00,,,0.00,meteohub,2013-04-17 20:54:00,
2013-04-17 16:59:00,55.2,20.8,30.29,NW,326,7.0,13.0,26,0.00,,,0.00,meteohub,2013-04-17 20:59:00,
2013-04-17 17:04:00,54.9,20.7,30.29,NW,313,10.0,11.0,26,0.00,,,0.00,meteohub,2013-04-17 21:04:00,
2013-04-17 17:09:00,54.3,20.1,30.29,NW,311,9.0,11.0,26,0.00,,,0.00,meteohub,2013-04-17 21:09:00,
2013-04-17 17:14:00,54.0,19.8,30.29,NW,325,8.0,11.0,26,0.00,,,0.00,meteohub,2013-04-17 21:14:00,
2013-04-17 17:19:00,53.8,19.8,30.29,NNW,333,6.0,12.0,26,0.00,,,0.00,meteohub,2013-04-17 21:19:00,
2013-04-17 17:26:00,53.8,19.8,30.29,NNW,345,12.0,12.0,26,0.00,,,0.00,meteohub,2013-04-17 21:26:00,
2013-04-17 17:31:00,53.4,19.4,30.29,WNW,282,8.0,12.0,26,0.00,,,0.00,meteohub,2013-04-17 21:31:00,
2013-04-17 17:36:00,53.2,19.2,30.29,NNW,335,8.0,13.0,26,0.00,,,0.00,meteohub,2013-04-17 21:36:00,
2013-04-17 17:41:00,53.2,20.1,30.29,NNW,337,8.0,15.0,27,0.00,,,0.00,meteohub,2013-04-17 21:41:00,
2013-04-17 17:46:00,53.1,19.0,30.29,NW,317,8.0,15.0,26,0.00,,,0.00,meteohub,2013-04-17 21:46:00,
2013-04-17 17:51:00,53.1,19.0,30.29,North,350,9.0,15.0,26,0.00,,,0.00,meteohub,2013-04-17 21:51:00,
2013-04-17 17:56:00,52.9,18.9,30.32,WNW,303,11.0,15.0,26,0.00,,,0.00,meteohub,2013-04-17 21:56:00,
2013-04-17 18:01:00,52.5,18.7,30.32,NNW,344,8.0,15.0,26,0.00,,,0.00,meteohub,2013-04-17 22:01:00,
2013-04-17 18:06:00,52.3,18.5,30.32,WNW,292,8.0,15.0,26,0.00,,,0.00,meteohub,2013-04-17 22:06:00,
2013-04-17 18:11:00,52.3,18.5,30.32,NNW,340,8.0,13.0,26,0.00,,,0.00,meteohub,2013-04-17 22:11:00,
2013-04-17 18:16:00,52.2,19.2,30.32,West,261,10.0,13.0,27,0.00,,,0.00,meteohub,2013-04-17 22:16:00,
2013-04-17 18:21:00,52.0,18.1,30.32,WNW,292,12.0,13.0,26,0.00,,,0.00,meteohub,2013-04-17 22:21:00,
2013-04-17 18:27:00,51.6,18.7,30.32,West,261,6.0,12.0,27,0.00,,,0.00,meteohub,2013-04-17 22:27:00,
2013-04-17 18:32:00,51.4,18.5,30.32,NW,326,8.0,12.0,27,0.00,,,0.00,meteohub,2013-04-17 22:32:00,
2013-04-17 18:37:00,51.1,18.3,30.32,West,263,5.0,12.0,27,0.00,,,0.00,meteohub,2013-04-17 22:37:00,
2013-04-17 18:42:00,51.1,18.3,30.32,WNW,299,6.0,11.0,27,0.00,,,0.00,meteohub,2013-04-17 22:42:00,
2013-04-17 18:47:00,50.7,18.0,30.32,NNW,341,8.0,11.0,27,0.00,,,0.00,meteohub,2013-04-17 22:47:00,
2013-04-17 18:52:00,50.5,17.8,30.32,NW,305,5.0,9.0,27,0.00,,,0.00,meteohub,2013-04-17 22:52:00,
2013-04-17 18:57:00,50.2,17.4,30.32,North,357,0.0,8.0,27,0.00,,,0.00,meteohub,2013-04-17 22:57:00,
2013-04-17 19:02:00,50.0,17.2,30.32,North,-999,-999.0,6.0,27,0.00,,,0.00,meteohub,2013-04-17 23:02:00,
2013-04-17 19:07:00,49.6,17.8,30.32,North,-999,-999.0,6.0,28,0.00,,,0.00,meteohub,2013-04-17 23:07:00,
2013-04-17 19:12:00,49.5,17.8,30.32,North,-999,-999.0,0.0,28,0.00,,,0.00,meteohub,2013-04-17 23:12:00,
2013-04-17 19:17:00,49.3,17.6,30.32,North,-999,-999.0,-999.0,28,0.00,,,0.00,meteohub,2013-04-17 23:17:00,
2013-04-17 19:22:00,48.9,18.0,30.32,North,-999,-999.0,-999.0,29,0.00,,,0.00,meteohub,2013-04-17 23:22:00,
2013-04-17 19:27:00,48.7,18.0,30.32,North,-999,-999.0,-999.0,29,0.00,,,0.00,meteohub,2013-04-17 23:27:00,
2013-04-17 19:32:00,48.6,17.8,30.32,North,-999,-999.0,-999.0,29,0.00,,,0.00,meteohub,2013-04-17 23:32:00,
2013-04-17 19:37:00,48.2,18.1,30.32,North,-999,-999.0,-999.0,30,0.00,,,0.00,meteohub,2013-04-17 23:37:00,
2013-04-17 19:42:00,48.0,18.1,30.35,NNW,327,0.0,0.0,30,0.00,,,0.00,meteohub,2013-04-17 23:42:00,
2013-04-17 19:47:00,47.7,18.5,30.35,North,-999,-999.0,0.0,31,0.00,,,0.00,meteohub,2013-04-17 23:47:00,
2013-04-17 19:52:00,47.3,18.1,30.35,North,-999,-999.0,0.0,31,0.00,,,0.00,meteohub,2013-04-17 23:52:00,
2013-04-17 19:57:00,47.3,18.9,30.35,NNW,334,0.0,0.0,32,0.00,,,0.00,meteohub,2013-04-17 23:57:00,
2013-04-17 20:02:00,46.9,18.7,30.35,North,-999,-999.0,0.0,32,0.00,,,0.00,meteohub,2013-04-18 00:02:00,
2013-04-17 20:07:00,46.8,18.5,30.35,NNW,343,0.0,0.0,32,0.00,,,0.00,meteohub,2013-04-18 00:07:00,
2013-04-17 20:12:00,46.4,18.1,30.35,North,-999,-999.0,0.0,32,0.00,,,0.00,meteohub,2013-04-18 00:12:00,
2013-04-17 20:17:00,46.0,18.5,30.35,North,-999,-999.0,0.0,33,0.00,,,0.00,meteohub,2013-04-18 00:17:00,
2013-04-17 20:22:00,45.9,18.3,30.35,North,-999,-999.0,0.0,33,0.00,,,0.00,meteohub,2013-04-18 00:22:00,
2013-04-17 20:27:00,45.7,18.1,30.35,North,-999,-999.0,0.0,33,0.00,,,0.00,meteohub,2013-04-18 00:27:00,
2013-04-17 20:32:00,45.3,18.7,30.35,North,-999,-999.0,-999.0,34,0.00,,,0.00,meteohub,2013-04-18 00:32:00,
2013-04-17 20:37:00,45.0,18.9,30.35,North,-999,-999.0,-999.0,35,0.00,,,0.00,meteohub,2013-04-18 00:37:00,
2013-04-17 20:42:00,44.6,18.7,30.38,North,-999,-999.0,-999.0,35,0.00,,,0.00,meteohub,2013-04-18 00:42:00,
2013-04-17 20:47:00,44.2,19.0,30.38,North,-999,-999.0,-999.0,36,0.00,,,0.00,meteohub,2013-04-18 00:47:00,
2013-04-17 20:52:00,43.9,19.2,30.35,North,-999,-999.0,-999.0,37,0.00,,,0.00,meteohub,2013-04-18 00:52:00,
2013-04-17 20:57:00,43.5,19.6,30.35,NW,320,4.0,0.0,38,0.00,,,0.00,meteohub,2013-04-18 00:57:00,
2013-04-17 21:02:00,43.7,19.8,30.35,NNW,342,4.0,6.0,38,0.00,,,0.00,meteohub,2013-04-18 01:02:00,
2013-04-17 21:07:00,43.9,19.2,30.35,NW,325,4.0,6.0,37,0.00,,,0.00,meteohub,2013-04-18 01:07:00,
2013-04-17 21:12:00,44.1,18.9,30.35,North,-999,-999.0,6.0,36,0.00,,,0.00,meteohub,2013-04-18 01:12:00,
2013-04-17 21:17:00,43.5,19.6,30.35,North,-999,-999.0,4.0,38,0.00,,,0.00,meteohub,2013-04-18 01:17:00,
2013-04-17 21:22:00,43.2,19.2,30.35,North,-999,-999.0,-999.0,38,0.00,,,0.00,meteohub,2013-04-18 01:22:00,
2013-04-17 21:27:00,42.8,18.9,30.35,North,-999,-999.0,-999.0,38,0.00,,,0.00,meteohub,2013-04-18 01:27:00,
2013-04-17 21:32:00,42.4,19.2,30.35,North,-999,-999.0,-999.0,39,0.00,,,0.00,meteohub,2013-04-18 01:32:00,
2013-04-17 21:37:00,42.3,19.0,30.35,North,-999,-999.0,-999.0,39,0.00,,,0.00,meteohub,2013-04-18 01:37:00,
2013-04-17 21:42:00,41.7,18.5,30.35,North,-999,-999.0,-999.0,39,0.00,,,0.00,meteohub,2013-04-18 01:42:00,
2013-04-17 21:47:00,41.4,18.3,30.35,North,-999,-999.0,-999.0,39,0.00,,,0.00,meteohub,2013-04-18 01:47:00,
2013-04-17 21:52:00,41.0,18.0,30.35,North,-999,-999.0,-999.0,39,0.00,,,0.00,meteohub,2013-04-18 01:52:00,
2013-04-17 21:57:00,40.8,17.8,30.35,North,-999,-999.0,-999.0,39,0.00,,,0.00,meteohub,2013-04-18 01:57:00,
2013-04-17 22:02:00,40.5,18.0,30.35,East,95,3.0,-999.0,40,0.00,,,0.00,meteohub,2013-04-18 02:02:00,
2013-04-17 22:07:00,41.0,18.0,30.35,North,-999,-999.0,-999.0,39,0.00,,,0.00,meteohub,2013-04-18 02:07:00,
2013-04-17 22:12:00,40.6,18.1,30.35,North,-999,-999.0,3.0,40,0.00,,,0.00,meteohub,2013-04-18 02:12:00,
2013-04-17 22:17:00,40.3,18.0,30.35,North,-999,-999.0,3.0,40,0.00,,,0.00,meteohub,2013-04-18 02:17:00,
2013-04-17 22:22:00,39.9,17.6,30.35,North,-999,-999.0,-999.0,40,0.00,,,0.00,meteohub,2013-04-18 02:22:00,
2013-04-17 22:27:00,39.7,17.4,30.35,North,-999,-999.0,-999.0,40,0.00,,,0.00,meteohub,2013-04-18 02:27:00,
2013-04-17 22:32:00,39.6,17.2,30.35,NW,307,0.0,-999.0,40,0.00,,,0.00,meteohub,2013-04-18 02:32:00,
2013-04-17 22:37:00,39.2,16.9,30.35,NW,307,0.0,0.0,40,0.00,,,0.00,meteohub,2013-04-18 02:37:00,
2013-04-17 22:42:00,38.8,17.1,30.35,North,-999,-999.0,0.0,41,0.00,,,0.00,meteohub,2013-04-18 02:42:00,
2013-04-17 22:47:00,38.7,17.1,30.35,North,-999,-999.0,0.0,41,0.00,,,0.00,meteohub,2013-04-18 02:47:00,
2013-04-17 22:52:00,38.5,17.4,30.35,North,-999,-999.0,-999.0,42,0.00,,,0.00,meteohub,2013-04-18 02:52:00,
2013-04-17 22:57:00,38.5,17.4,30.35,North,-999,-999.0,-999.0,42,0.00,,,0.00,meteohub,2013-04-18 02:57:00,
2013-04-17 23:02:00,38.1,17.1,30.35,WNW,300,0.0,-999.0,42,0.00,,,0.00,meteohub,2013-04-18 03:02:00,
2013-04-17 23:07:00,37.9,16.9,30.35,North,-999,-999.0,-999.0,42,0.00,,,0.00,meteohub,2013-04-18 03:07:00,
2013-04-17 23:12:00,37.6,16.5,30.35,NW,309,0.0,0.0,42,0.00,,,0.00,meteohub,2013-04-18 03:12:00,
2013-04-17 23:17:00,37.4,16.3,30.35,North,-999,-999.0,0.0,42,0.00,,,0.00,meteohub,2013-04-18 03:17:00,
2013-04-17 23:22:00,37.2,16.7,30.35,North,-999,-999.0,0.0,43,0.00,,,0.00,meteohub,2013-04-18 03:22:00,
2013-04-17 23:27:00,37.2,17.2,30.35,North,-999,-999.0,0.0,44,0.00,,,0.00,meteohub,2013-04-18 03:27:00,
2013-04-17 23:32:00,37.0,17.1,30.35,North,-999,-999.0,-999.0,44,0.00,,,0.00,meteohub,2013-04-18 03:32:00,
2013-04-17 23:37:00,36.7,16.9,30.35,North,-999,-999.0,-999.0,44,0.00,,,0.00,meteohub,2013-04-18 03:37:00,
2013-04-17 23:42:00,36.3,16.5,30.38,North,-999,-999.0,-999.0,44,0.00,,,0.00,meteohub,2013-04-18 03:42:00,
2013-04-17 23:47:00,36.1,16.3,30.38,North,-999,-999.0,-999.0,44,0.00,,,0.00,meteohub,2013-04-18 03:47:00,
2013-04-17 23:52:00,36.1,16.9,30.38,North,-999,-999.0,-999.0,45,0.00,,,0.00,meteohub,2013-04-18 03:52:00,
2013-04-17 23:57:00,36.0,16.2,30.38,North,-999,-999.0,-999.0,44,0.00,,,0.00,meteohub,2013-04-18 03:57:00,